Regional Weather Roundup
Issued by NWS

Home | Current Version | Previous Version | Graphics & Text | Print | Product List | Glossary On
Versions: 1 2 3 4 5 6 7 8 9 10 11 12 13 14 15 16 17 18 19 20 21 22 23 24 25 26 27 28 29 30 31 32 33 34 35 36 37 38 39 40 41 42 43 44 45 46 47 48 49 50
653
ASUS43 KDMX 041806
RWRIA

WEATHER ROUNDUP FOR IOWA
NATIONAL WEATHER SERVICE DES MOINES IA
1200 PM CST SUN DEC 04 2016

NOTE: "FAIR" INDICATES FEW OR NO CLOUDS BELOW 12,000 FEET WITH NO
SIGNIFICANT WEATHER AND/OR OBSTRUCTIONS TO VISIBILITY.

* - THESE STATIONS ARE NOT NWS STATIONS...THUS NOT UNDER NWS
QUALITY CONTROL.  THEY ALSO DO NOT REPORT WEATHER SUCH
AS PRECIPITATION OR FOG.

IAZ001>003-012>014-020>022-031>034-043>046-041900-
   NORTHWEST IOWA

CITY           SKY/WX    TMP DP  RH WIND       PRES   REMARKS
CARROLL *      CLOUDY    36  34  93 SW15      29.91F WCI  26
CHEROKEE *     MOSUNNY   37  35  92 SW12      29.89F WCI  30
DENISON *      CLOUDY    36  34  93 SW13      29.90F WCI  27
LE MARS *      SUNNY     43  34  70 W9        29.90F
ORANGE CITY *  SUNNY     39  36  87 W10       29.87F WCI  32
SHELDON *      SUNNY     41  37  87 W13       29.84F
SIOUX CITY     SUNNY     44  34  67 W8        29.91F
6HR MIN TEMP:  31; 6HR MAX TEMP:  44;

SPENCER        CLOUDY    38  35  89 W12       29.87F WCI  30
6HR MIN TEMP:  31; 6HR MAX TEMP:  39;

STORM LAKE *   PTSUNNY   32  32 100 SW17      29.88F FOG     WCI  21
$$

IAZ055>058-069>071-079>083-090>094-041900-
   SOUTHWEST IOWA

CITY           SKY/WX    TMP DP  RH WIND       PRES   REMARKS
ATLANTIC *     CLOUDY    34  32  93 SW13      29.95S FOG     WCI  25
AUDUBON *      CLOUDY    34  30  86 SW9       29.94F WCI  26
CLARINDA *       N/A     36  36 100 W9        29.99F WCI  29
COUNCIL BLFS * PTSUNNY   34  34 100 SW10      29.95F WCI  26
CRESTON *      CLOUDY    34  34 100 W13       29.95F FOG     WCI  25
HARLAN  *      CLOUDY    34  34 100 SW13      29.97F FOG     WCI  25
LAMONI         CLOUDY    34  33  96 SW8       29.95F FOG     WCI  27
6HR MIN TEMP:  33; 6HR MAX TEMP:  34; 6HR PCP:  0.18;

RED OAK *      CLOUDY    37  34  87 SW10G17   29.96F WCI  30
SHENANDOAH *   CLOUDY    37  36  93 SW12      29.98F WCI  30
$$

IAZ047>049-059>061-072>074-084-041900-
   CENTRAL IOWA

CITY           SKY/WX    TMP DP  RH WIND       PRES   REMARKS
AMES           CLOUDY    34  34 100 W10       29.93F FOG     WCI  26
6HR MIN TEMP:  33; 6HR MAX TEMP:  34; 6HR PCP:  0.19;

ANKENY *       CLOUDY    36 N/A N/A SW6       29.94F WCI  31
BOONE *        CLOUDY    34  34 100 W10G17    29.91F FOG     WCI  26
CHARITON *       N/A     34  34 100 SW7       29.94F WCI  28
DES MOINES     CLOUDY    36  34  92 SW8       29.94F WCI  30
6HR MIN TEMP:  33; 6HR MAX TEMP:  36; 6HR PCP:  0.18;

GRINNELL*      LGT SNOW  33  32  96 S9        29.94F WCI  25
KNOXVILLE *    CLOUDY    34  32  93 SW8       29.93F WCI  27
MARSHALLTOWN   CLOUDY    34  33  96 S10       29.92F WCI  26
6HR MIN TEMP:  33; 6HR MAX TEMP:  34; 6HR PCP:  0.15;

NEWTON *       CLOUDY    32  32 100 S8        29.93F FOG     WCI  25
PELLA *        CLOUDY    33  33  98 S6        29.96F WCI  28
PERRY *        CLOUDY    34  34  99 SW9       29.94F FOG     WCI  27
$$

IAZ004>006-015-016-023>025-035-036-041900-
   NORTH CENTRAL IOWA

CITY           SKY/WX    TMP DP  RH WIND       PRES   REMARKS
ALGONA *       CLOUDY    36  32  87 SW15      29.87F WCI  26
CLARION *      PTSUNNY   34  34 100 SW9       29.90F FOG     WCI  26
ESTHERVILLE    CLOUDY    36  34  92 SW18      29.85F WCI  26
6HR MIN TEMP:  32; 6HR MAX TEMP:  37;

FORT DODGE *   CLOUDY    36  30  80 SW10      29.91F WCI  28
MASON CITY     CLOUDY    33  32  96 SW12      29.89F FOG     WCI  24
6HR MIN TEMP:  32; 6HR MAX TEMP:  33; 6HR PCP:  0.02;

FOREST CITY *  CLOUDY    34  34 100 SW10      29.87F FOG     WCI  26
WEBSTER CITY * CLOUDY    34  34 100 SW10      29.89F WCI  26
IOWA FALLS *   FOG       35  33  94 SW10      29.92F VSB 1/2 WCI  27
$$

IAZ007>011-017>019-026>030-037>042-050>054-066-041900-
   NORTHEAST IOWA

CITY           SKY/WX    TMP DP  RH WIND       PRES   REMARKS
CEDAR RAPIDS   SNOW      32  32 100 S5        29.95F VSB 1/2 WCI  27
6HR MIN TEMP:  31; 6HR MAX TEMP:  32; 6HR PCP:  0.35;

CHARLES CITY * CLOUDY    34  34 100 S12       29.90F FOG     WCI  25
CLINTON *      LGT SNOW  32  30  92 SE9       30.00F VSB 1   WCI  24
DECORAH *      LGT SNOW  32  32 100 S10G16    29.90F VSB 3/4 WCI  24
DUBUQUE        SNOW      30  29  96 S13       29.96F VSB 1/2 WCI  20
6HR MIN TEMP:  29; 6HR MAX TEMP:  30; 6HR PCP:  0.24;

MONTICELLO *   SNOW      32  30  93 SE8       29.96F VSB 1/2 WCI  25
OELWEIN *      FOG       32  32 100 S13       29.93F VSB 3/4 WCI  22
WATERLOO       LGT SNOW  33  31  92 S9        29.92F FOG     WCI  25
6HR MIN TEMP:  33; 6HR MAX TEMP:  33; 6HR PCP:  0.31;

$$

IAZ064-065-067-068-078-041900-
   EAST CENTRAL IOWA

CITY           SKY/WX    TMP DP  RH WIND       PRES   REMARKS
DAVENPORT      HVY SNOW  31  30  96 SE7       29.99F VSB 1/4 WCI  24
6HR MIN TEMP:  31; 6HR MAX TEMP:  32; 6HR PCP:  0.25;

IOWA CITY      SNOW      33  32  96 S7        29.99F VSB 1/2 WCI  27
6HR MIN TEMP:  33; 6HR MAX TEMP:  33; 6HR PCP:  0.30;

MUSCATINE *    LGT SNOW  34  32  93 SE8       29.98F VSB 3/4 WCI  27
QUAD CITIES    HVY SNOW  32  30  92 SE5       29.98F VSB 1/4 WCI  27
6HR MIN TEMP:  32; 6HR MAX TEMP:  33; 6HR PCP:  0.41;

$$

IAZ062-063-075>077-085>089-095>099-041900-
   SOUTHEAST IOWA

CITY           SKY/WX    TMP DP  RH WIND       PRES   REMARKS
BURLINGTON     HVY SNOW  32  32 100 SE7       29.97F VSB 1/4 WCI  26
6HR MIN TEMP:  32; 6HR MAX TEMP:  32; 6HR PCP:  0.39;

FAIRFIELD *    FOG       32  32 100 S7        29.96F VSB 1   WCI  26
FORT MADISON * SNOW      34  32  93 CALM      29.98F VSB 1/2
KEOKUK *       SNOW      34  32  93 SE3       29.97F VSB 1/2
OSKALOOSA *    LGT SNOW  33  32  98 S6        29.96F WCI  27
CENTERVILLE *  CLOUDY    34  34 100 S3        29.97F
OTTUMWA        LGT SNOW  33  32  96 S8        29.96F FOG     WCI  26
6HR MIN TEMP:  33; 6HR MAX TEMP:  35; 6HR PCP:  0.34;

WASHINGTON *   SNOW      32  32 100 S8        29.98F VSB 1/2 WCI  25
$$

ABBREVIATIONS USED IN REMARKS
   TC - TEMPERATURES IN CELSIUS
  WCI - WIND CHILL INDEX
   HX - HEAT INDEX
  VSB - VISIBILITY
$$





USA.gov is the U.S. government's official web portal to all federal, state and local government web resources and services.